Location: Platte
(43.3870°N, 98.8440°W)
Time: 17:54:06
(UTC-05:00)

Atlas Centaur 2 - Pass Details

Date: 21 May 2018
Orbit: 459 x 1312 km, 30.4° (Epoch: 19 June)

Event Time Altitude Azimuth Distance (km) Brightness Sun altitude
Rises 22:10:02 0° 234° (SW) 2,531 4.9 -11.2°
Reaches altitude 10° 22:13:50 10° 194° (SSW) 1,593 3.4 -11.7°
Maximum altitude 22:14:41 11° 180° (S) 1,548 3.2 -11.8°
Enters shadow 22:14:50 11° 178° (S) 1,549 3.2 -11.8°
